Home > Weather > Sandpoint > Past weeks

Flag for USA Past Weather in Sandpoint, Idaho, USA — Yesterday and Last 2 Weeks

Now
86 °F

Sunny.


Feels Like: 84 °F
Forecast: 56 / 85 °F
Wind: 7 mph from East

Location: Sandpoint Airport

Current Time: Jul 27, 2016 at 4:11:36 PM

Latest Report: Jul 27, 2016 at 3:35 PM


Visibility: 10 mi

Pressure: 30.03 "Hg (27.95 "Hg at 636m altitude)

Humidity: 31%

Dew Point: 52 °F

Location of SandpointLocation

Past Weather in Sandpoint — Graph

°F

Sandpoint Temperature Yesterday

Maximum temperature yesterday: 84 °F (at 4:15 PM)
Minimum temperature yesterday: 55 °F (at 2:35 AM)
Average temperature yesterday: 69 °F

High & Low Weather Summary for the Past Weeks

 TemperatureHumidityPressure
High88 °F (Jul 25, 2:55 PM)100% (Jul 21, 3:55 AM)30.20 "Hg (Jul 21, 3:55 AM)
Low45 °F (Jul 21, 4:55 AM)18% (Jul 21, 3:35 PM)29.84 "Hg (Jul 18, 3:35 PM)
Average67 °F59%30.05 "Hg
* Reported Jul 12 2:15 PM — Jul 27 2:55 PM, Sandpoint, Weather by CustomWeather, © 2016

Note: Actual official high and low records may vary slightly from our data, if they occured in-between our weather recording intervals... More about our weather records

Advertising

Sandpoint Weather History for the Previous 24 Hours

Scroll right to see more
 ConditionsComfort  
Time TempWeatherWind HumidityBarometerVisibility
2:55 PM
Wed, Jul 27
86 °FSunny.6 mph31%30.03 "Hg10 mi
2:35 PM88 °FSunny.6 mph27%30.04 "Hg10 mi
2:15 PM86 °FSunny.No wind29%30.04 "Hg10 mi
1:55 PM86 °FSunny.No wind31%30.05 "Hg10 mi
1:35 PM84 °FSunny.No wind29%30.05 "Hg10 mi
1:15 PM82 °FSunny.3 mph32%30.06 "Hg10 mi
12:55 PM82 °FSunny.No wind37%30.07 "Hg10 mi
12:35 PM81 °FSunny.No wind42%30.07 "Hg10 mi
12:15 PM81 °FSunny.No wind42%30.07 "Hg10 mi
11:55 AM79 °FSunny.5 mph45%30.08 "Hg10 mi
11:35 AM79 °FSunny.3 mph45%30.09 "Hg10 mi
11:15 AM79 °FSunny.8 mph42%30.09 "Hg10 mi
10:55 AM77 °FSunny.10 mph42%30.09 "Hg10 mi
10:35 AM77 °FSunny.10 mph44%30.09 "Hg10 mi
10:15 AM75 °FSunny.10 mph47%30.10 "Hg10 mi
9:55 AM73 °FSunny.8 mph53%30.10 "Hg10 mi
9:35 AM73 °FSunny.9 mph50%30.10 "Hg10 mi
9:15 AM72 °FSunny.8 mph53%30.10 "Hg10 mi
8:55 AM72 °FSunny.10 mph53%30.10 "Hg10 mi
8:15 AM68 °FSunny.7 mph60%30.11 "Hg10 mi
7:55 AM68 °FSunny.9 mph60%30.10 "Hg10 mi
7:15 AM64 °FSunny.3 mph68%30.09 "Hg10 mi
6:55 AM61 °FScattered clouds.No wind83%30.09 "Hg10 mi
6:35 AM59 °FSunny.No wind82%30.08 "Hg10 mi
6:15 AM55 °FClear.No wind94%30.08 "Hg10 mi
5:55 AM57 °FClear.3 mph88%30.08 "Hg10 mi
5:35 AM61 °FClear.8 mph77%30.07 "Hg10 mi
4:55 AM55 °FPassing clouds.No wind94%30.07 "Hg10 mi
4:35 AM55 °FClear.No wind94%30.07 "Hg10 mi
4:15 AM55 °FPassing clouds.No wind94%30.07 "Hg10 mi
3:55 AM55 °FClear.No wind94%30.06 "Hg10 mi
3:35 AM55 °FClear.No wind94%30.06 "Hg10 mi
3:15 AM55 °FClear.No wind94%30.06 "Hg10 mi
2:55 AM57 °FClear.No wind88%30.05 "Hg10 mi
2:35 AM59 °FClear.No wind82%30.04 "Hg10 mi
2:15 AM59 °FClear.No wind82%30.04 "Hg10 mi
1:55 AM61 °FClear.7 mph77%30.04 "Hg10 mi
1:35 AM59 °FClear.6 mph88%30.05 "Hg10 mi
1:15 AM61 °FClear.No wind77%30.06 "Hg10 mi
12:55 AM61 °FClear.3 mph77%30.06 "Hg10 mi
12:35 AM61 °FClear.6 mph77%30.06 "Hg10 mi
12:15 AM63 °FClear.3 mph73%30.06 "Hg10 mi
11:55 PM
Tue, Jul 26
64 °FClear.3 mph68%30.06 "Hg10 mi
11:35 PM66 °FClear.6 mph64%30.05 "Hg10 mi
11:15 PM68 °FClear.6 mph60%30.05 "Hg10 mi
10:55 PM64 °FClear.6 mph73%30.06 "Hg10 mi
10:35 PM64 °FPassing clouds.No wind73%30.07 "Hg10 mi
10:15 PM64 °FPassing clouds.No wind73%30.07 "Hg10 mi
9:55 PM66 °FClear.3 mph68%30.06 "Hg10 mi
9:35 PM70 °FClear.5 mph53%30.05 "Hg10 mi
9:15 PM68 °FSunny.No wind60%30.03 "Hg10 mi
8:55 PM72 °FSunny.5 mph50%30.03 "Hg10 mi
8:35 PM72 °FSunny.9 mph50%30.02 "Hg10 mi
8:15 PM72 °FSunny.12 mph50%30.02 "Hg10 mi
7:55 PM73 °FSunny.12 mph50%30.02 "Hg10 mi
7:35 PM73 °FSunny.14 mph50%30.02 "Hg10 mi
7:15 PM75 °FSunny.14 mph47%30.02 "Hg10 mi
6:55 PM77 °FScattered clouds.12 mph44%30.02 "Hg10 mi
6:15 PM81 °FScattered clouds.13 mph37%30.02 "Hg10 mi
5:55 PM82 °FSunny.10 mph35%30.00 "Hg10 mi
5:15 PM84 °FSunny.7 mph31%30.00 "Hg10 mi
4:55 PM82 °FSunny.7 mph37%30.00 "Hg10 mi
4:35 PM84 °FSunny.3 mph31%30.00 "Hg10 mi
4:15 PM84 °FSunny.8 mph33%30.00 "Hg10 mi
Weather by CustomWeather, © 2016

See weather overviewHow to use our weather pages